Regional Weather Roundup
Issued by NWS Pendleton, OR

Home | Current Version | Previous Version | Text Only | Print | Product List | Glossary On
Versions: 1 2 3 4 5 6 7 8 9 10 11 12 13 14 15 16 17 18 19 20 21 22 23 24 25 26 27 28 29 30 31 32 33 34 35 36 37 38 39 40 41 42 43 44 45 46 47 48 49 50
000
ASUS46 KPDT 280025
RWRPDT
PENDLETON REGIONAL WEATHER ROUNDUP
NATIONAL WEATHER SERVICE PENDLETON OREGON
500 PM PDT SAT AUG 27 2016

NOTE: FAIR INDICATES FEW OR NO CLOUDS BELOW 12,000 FEET WITH NO
SIGNIFICANT WEATHER AND/OR OBSTRUCTIONS TO VISIBILITY.

# INDICATES UNOFFICIAL STATION AND DATA

WAZ520-280110-
EAST SLOPES OF WASHINGTON CASCADES

CITY            SKY/WX      TMP DP  RH  WIND    PRES   REMARKS
#BULLFROG       N/A         55  N/A N/A N2      N/A
#BUMPING DAM    N/A         55  32  41  W12     N/A
#CLE ELUM HS    N/A         71  43  36  SW7     29.80
#CLE ELUM 2NW   N/A         69  41  36  SW5     N/A
#CLIFFDEL 2NW   N/A         55  N/A N/A SW3     N/A
#EASTON DOT     N/A         55  86  100 W16     N/A
#ELK HTS DOT    N/A         55  N/A N/A NE1     N/A
#GLENWOOD       N/A         74  58  57  SW6     29.78S
#MANASTASH CYN  N/A         76  44  32  N1      29.83R
#NELSON 3SW     N/A         67  48  50  CALM    29.91
#NILE           N/A         78  49  36  SW3     29.01R
#PEOH POINT     N/A         55  50  83  CALM    N/A
#RONALD 2NW     N/A         71  N/A N/A N3      29.79R
#SOUTH BLEWITT  N/A         54  32  43  W13G32  N/A
#TEANAWAY 4NE   N/A         73  42  33  NW5     N/A
#TROUT LAKE 1NE N/A         72  55  55  W10G26  29.82R
$$

WAZ521-280110-
SIMCOE HIGHLANDS

CITY            SKY/WX      TMP DP  RH  WIND    PRES   REMARKS
#SATUS PASS DOT N/A         55  140 100 W13G32  N/A
#CENTERVILLE 1SWN/A         78  54  43  W18     29.73R
#GOLDENDALE     N/A         55  32  41  NW3     N/A
#GOLDENDALE 1NE N/A         78  35  21  SW9     N/A
#GOLDENDALE 4W  N/A         78  58  50  W20     29.89S
#GOODNOE HILLS  N/A         84  54  36  W30G40  29.72S
#LYLE 6NE       N/A         78  55  45  W14G28  29.74R
$$

WAZ026-280110-
KITTITAS VALLEY

CITY            SKY/WX      TMP DP  RH  WIND    PRES   REMARKS
ELLENSBURG AP   MOCLDY      76  48  37  NW25G36 29.79
6HR MIN TEMP:   75; 6HR MAX TEMP:   82;

#ELLENSBURG CWU N/A         74  49  41  N22     29.65R
#ELLENSBURG 3NE N/A         72  49  44  N15G28  29.80R
#ELLENSBURG     N/A         76  48  37  NW14    N/A
#ELLENSBURG 1E  N/A         74  N/A N/A NW3     N/A
#KITTITAS 4N    N/A         74  43  33  NW12    29.75S
#KITTITAS 3S    N/A         73  50  44  NW15G25 29.69R
#MANASTASH RDG  N/A         55  N/A N/A SW16G25 N/A
#ROCKY CYN DOT  N/A         55  N/A N/A NE1     N/A
#RYEGRASS DOT   N/A         55  N/A N/A SW16G25 N/A
#THORP 6N       N/A         71  45  39  W15G35  29.73R
$$

WAZ027-280110-
YAKIMA VALLEY

CITY            SKY/WX      TMP DP  RH  WIND    PRES   REMARKS
SUNNYSIDE AP    N/A         83  55  38  W14     29.74S
YAKIMA AIRPORT  CLOUDY      81  49  33  W18G26  29.76  BLWG DUST
6HR MIN TEMP:   72; 6HR MAX TEMP:   89;

YAKIMA-VAGABOND N/A         78  45  31  W16     29.76
6HR MIN TEMP:   75; 6HR MAX TEMP:   85;

#DONALD 2NE     N/A         79  26  14  SW3     28.62R
#GRANDVIEW      N/A         85  50  30  W3      29.71S
#MABTON         N/A         86  55  35  W7      29.72
#NACHES 2SW     N/A         76  50  40  SW9     29.79S
#OUTLOOK DOT    N/A         55  14  19  N2      N/A
#PARKER DOT     N/A         55  N/A N/A N2      N/A
#SELAH 8E       N/A          7   1  76  CALM    N/A
#TERRACE HTS    N/A         78  47  34  E6      29.67S
#TOPPENISH      N/A         81  54  39  W12G26  29.63R
#I82 S UMTANUM RN/A         55  N/A N/A CALM    N/A
#UNION GAP DOT  N/A         55  N/A N/A N2      N/A
#WEST VALLEY    N/A         78  45  31  W8      29.70S
#WHITE SWAN 5E  N/A         80  53  39  W22G33  29.72S
#WILEY CITY 3W  N/A         77  32  19  CALM    29.75S
#ZILLAH DOT     N/A         55  N/A N/A N2      N/A
$$

WAZ028-280110-
LOWER COLUMBIA BASIN...WASHINGTON

CITY            SKY/WX      TMP DP  RH  WIND    PRES   REMARKS
PASCO           MOCLDY      91  48  23  W20     29.71  HX 88
6HR MIN TEMP:   88; 6HR MAX TEMP:   95;

PROSSER AWOS    N/A         84  54  36  W14     29.76S
RICHLAND AWOS   MOCLDY      92  50  24  W16     29.71R HX 89
#BENTON CITY    N/A         86  53  32  NW7     29.59
#CONNELL 5N     N/A         87  50  28  W8      29.67S
#CONNELL 5NW    N/A         84  53  34  W3      29.62F
#ELTOPIA 6NW    N/A         86  53  32  W12     28.70S
#KAHLOTUS       N/A         85  45  25  N17G25  29.65R
#KENNEWICK 3S   N/A         89  53  29  N1      29.68S
#PATERSON       N/A         87  52  30  N17G26  29.68
#PROSSER DOT    N/A         55  86  100 N2      N/A
#SAGEMOOR 2W    N/A         84  54  36  W10     29.54S
#TOUCHET 2S     N/A         91  49  24  W8      29.66S HX 88
#WEST PASCO     N/A         89  54  31  NW7     29.66S
$$

WAZ029-280110-
FOOTHILLS OF THE BLUES...WASHINGTON

CITY            SKY/WX      TMP DP  RH  WIND    PRES   REMARKS
WALLA WALLA AP  MOCLDY      90  37  15  SW21G29 29.76  BLWG DUST HX 86
6HR MIN TEMP:   86; 6HR MAX TEMP:   92; 6HR PCP:  TRACE;

#CLYDE 6NW      N/A         87  46  24  W17G26  29.66
#DAYTON SCHOOL  N/A         86  41  21  SW7     29.78
#DELANEY DOT    N/A         55  86  100 W15     N/A
#LOWDEN 2SE     N/A         89  51  27  W12     29.68S
#PLEASANT VIEW 1N/A         85  44  24  S13G25  29.69
#PRESCOTT       N/A         88  47  24  W5      29.68S
#WHITMAN COLLEGEN/A         88  43  21  SW7     29.74R
#WAITSBURG 8N   N/A         84  24  11  S14     29.71F
#WALLA WALLA U  N/A         88  43  21  CALM    29.69R
#WHITMAN MISSIONN/A         88  47  24  W9      29.71S
$$

WAZ030-280110-
BLUE MOUNTAINS...WASHINGTON

CITY            SKY/WX      TMP DP  RH  WIND    PRES   REMARKS
#DIXIE 5SE      N/A         80  39  23  SW16G26 29.80S
$$

ORZ009-041-WAZ024-280110-
COLUMBIA RIVER GORGE

CITY            SKY/WX      TMP DP  RH  WIND    PRES   REMARKS
HOOD RIVER AP   MOCLDY      81  52  37  W10     29.85
THE DALLES AP   MOCLDY      84  51  32  NW21G30 29.79
6HR MIN TEMP:   79; 6HR MAX TEMP:   88;

#ARLINGTON AIRPON/A         82  53  37  W18     29.73S
#LYLE           N/A         83  55  38  W13G32  29.80S
#MARYHILL       N/A         55  140 100 CALM    N/A
#MARYHILL 2W    N/A         N/A N/A N/A CALM    N/A
#MOSIER 1S      N/A         81  37  21  W9      29.82S
#MURDOCK        N/A         82  59  46  W17G26  29.75S
#RUFUS DOT      N/A         86  51  30  W21     N/A
#SMITHVILLE     N/A         83  54  37  N18G28  29.79R

$$

ORZ510-280110-
NORTH CENTRAL OREGON

CITY            SKY/WX      TMP DP  RH  WIND    PRES   REMARKS
#ANTELOPE       N/A         86  47  26  W7      29.59
#COW CYN RST AREN/A         84  N/A N/A W15     N/A
#DUFUR 9E       N/A         72  49  44  NW16G28 29.81S
#GRASS VALLEY 1SN/A         77  46  33  NW9     29.84S
#KENT DOT       N/A         87  49  27  N18     N/A
#MAUPIN SCHOOL  N/A         86  48  27  W7      29.84S
#SHANIKO 5WSW   N/A         83  45  26  N23     N/A
#TYGH VALLEY 2NEN/A         83  46  27  N12     29.75R
#WAPANITIA AIRPON/A         81  47  30  NW8     29.76S
#WASCO DOT      N/A         81  53  38  W22     N/A
#WASCO 5NE      N/A         82  52  35  W17G28  29.74S
$$

ORZ511-280110-
CENTRAL OREGON

CITY            SKY/WX      TMP DP  RH  WIND    PRES   REMARKS
BEND AIRPORT    SUNNY       82  39  22  NW10    29.94S
MADRAS AIRPORT  SUNNY       93  39  15  NW14G24 29.90  HX 89
PRINEVILLE AP   SUNNY       84  39  20  W15G24  29.94R
REDMOND AIRPORT SUNNY       87  36  16  NW15    29.92
6HR MIN TEMP:   80; 6HR MAX TEMP:   89;

#ASHWOOD SCHOOL N/A         87  41  20  W1      29.85S
#BEND 1SW       N/A         82  42  24  NW2     N/A
#BEND-AWBREY    N/A         85  43  23  NW3     29.77S
#CULVER         N/A         85  43  23  W7      29.70S
#CULVER 8W      N/A         83  34  17  SW5     29.94R
#LAKE BILLY CHINN/A         83  N/A N/A W12     29.93R
#MADRAS         N/A         55  32  41  W10G26  N/A
#MADRAS 4S      N/A         86  26  11  CALM    29.97S
#POWELL BUTTE 3EN/A         81  46  29  NW10    N/A
#POWELL BUTTE   N/A         82  46  28  NW6     29.83S
#PRINEVILLE 3N  N/A         84  48  29  W13     29.85S
#WARM SPRINGS   N/A         90  49  25  CALM    29.82R HX 87

$$


ORZ509-280110-
EAST SLOPES OF OREGON CASCADES

CITY            SKY/WX      TMP DP  RH  WIND    PRES   REMARKS
SISTERS AWOS    N/A         82  45  27  W17G25  29.93S
#BLUE BOX PASS  N/A         71  N/A N/A NW1     N/A
#CAMP SHERMAN   N/A         81  42  25  N3      29.91S
#LA PINE 4NW    N/A         80  47  31  CALM    29.86S
#LAVA BUTTE DOT N/A         83  46  27  S2      N/A
#SISTERS AIRPOR N/A         81  52  37  N13     30.17S
#SISTERS ODOT   N/A         81  N/A N/A SE6     N/A
#SISTERS 3N     N/A         82  43  25  W3      29.87S
#SUNRIVER       N/A         81  44  27  S3      29.83S
#SUTTLE LK DOT  N/A         73  46  38  CALM    N/A
#TUMALO 3W      N/A         80  42  26  NW17    29.63F
#WANOGA BUTTE D N/A         70  37  30  NW13    N/A

$$

ORZ044-280110-
LOWER COLUMBIA BASIN...OREGON

CITY            SKY/WX      TMP DP  RH  WIND    PRES   REMARKS
HERMISTON       CLOUDY      88  46  23  W23G33  29.73
6HR MIN TEMP:   87; 6HR MAX TEMP:   94;

#BOARDMAN SCHOOLN/A         86  53  32  SW8     29.72S
#ECHO 8SW       N/A         84  50  31  W18     29.76S
#I-84 EX 198 DOTN/A         87  54  32  E24     N/A
#IRRIGON 4NW    N/A         55  50  83  NW7     N/A
#UMATILLA       N/A         86  52  31  SW10    29.63S
$$

ORZ507-280110-
NORTHERN FOOTHILLS OF THE BLUES

CITY            SKY/WX      TMP DP  RH  WIND    PRES   REMARKS
PENDLETON AIRPT CLOUDY      86  38  18  W30G36  29.78
6HR MIN TEMP:   86; 6HR MAX TEMP:   93;

#ADAMS 3WNW     N/A         86  39  19  W21G28  29.70
#ATHENA         N/A         85  39  20  W13     29.73S
#CAYUSE         N/A         86  44  23  W22G29  29.69S
#HELIX SCHOOL   N/A         85  41  21  N15G28  29.72
#HELIX 3N       N/A         83  40  22  W15G33  29.79
#HELIX 6SW      N/A         84  43  24  CALM    29.78S
#HOLDMAN 5SE    N/A         86  46  25  W16G26  29.78S
#HOLDMAN 6E     N/A         84  45  26  NE18G25 29.51S
#M-F GROVE ELEM N/A         89  35  15  W10G24  29.75
#M-FREEWATER 5SEN/A         85  45  25  W7      29.78S
#PDT AQUATIC CTRN/A         87  38  18  W15     29.81
#PDT SUNRIDGE   N/A         87  42  21  W12     29.78
#PENDLETON 7NW  N/A         84  53  34  W21G30  32.43S
#PILOT ROCK 1S  N/A         87  44  22  W12     29.81
#PILOT ROCK     N/A         87  42  21  NW10    29.81S
#TUTUILLA       N/A         86  40  20  CALM    29.74S
#UMAPINE 2E     N/A         85  47  27  SW7     29.71S
#WESTON SCHOOL  N/A         84  34  17  N8G26   29.64

$$

ORZ508-280110-
SOUTHERN FOOTHILLS OF THE BLUES

CITY            SKY/WX      TMP DP  RH  WIND    PRES   REMARKS
LEXINGTON       MOCLDY      84  41  22  W22G30  29.85R
#AJAX           N/A         77  40  26  SW16G25 27.64R
#CONDON SCHOOL  N/A         81  47  30  NW10    29.86R
#CONDON 5W      N/A         77  40  26  NW16G25 29.88S
#FOSSIL SCHOOL  N/A         86  43  22  NW7     29.83F
#HEPPNER EOC    N/A         81  42  25  W8G28   29.67R
#HEPPNER 4NE    N/A         78  39  25  NW17G26 29.72R
#LEXINGTON 2SE  N/A         84  43  24  NW16G26 29.78S
#MIKKALO        N/A         82  42  24  NW18G28 29.96
#OLEX 4N        N/A         83  48  30  W29G36  29.78S
#RUGGS 5NE      N/A         78  37  23  W16     30.07R
#RUGGS 2SW      N/A         84  44  25  NW14G26 29.72

$$

ORZ502-503-280110-
BLUE MOUNTAINS

CITY            SKY/WX      TMP DP  RH  WIND    PRES   REMARKS
MEACHAM         MOCLDY      79  31  17  NW8     29.93
6HR MIN TEMP:   77; 6HR MAX TEMP:   84;

#BATTLE MTN DOT N/A         80  46  30  N6      N/A
#CUTSFORTH PARK N/A         77  42  29  CALM    29.74R
#HARDMAN 10S    N/A         82  42  24  CALM    29.85S
#HEPPNER 15SE   N/A         73  41  31  W3      25.50S
#LADD CYN SMT   N/A         87  47  25  NW8     N/A
#LADD CREEK ODOTN/A         89  52  28  NE3     N/A
#LONG CREEK HS  N/A         82  39  22  N10     29.92S
#N POWDER DOT   N/A         89  50  26  N2      N/A
#PIKES PEAK     N/A         75  38  26  SW24G31 27.99
#TOLLGATE       N/A         69  40  35  S5      29.86S
#TROY SCHOOL    N/A         89  47  24  W1      29.52
#UKIAH          N/A         83  42  24  NW7     29.68R
#WESTON 4E      N/A         79  39  24  W10     29.69R
$$

ORZ505-280110-
JOHN DAY BASIN

CITY            SKY/WX      TMP DP  RH  WIND    PRES   REMARKS
JOHN DAY        SUNNY       88  34  15  NW9     29.91S
#DAYVILLE SCHOOLN/A         90  36  15  N8      29.82R HX 86
#MITCHELL       N/A         87  49  27  NE1     30.06S
#MITCHELL 8NW   N/A         86  39  19  W6      29.90S
#MONUMENT HS    N/A         91  37  15  NW7     29.71  HX 87
#MT. VERNON 5SE N/A         84  39  20  N1      29.88F
#SPRAY SCHOOL   N/A         92  N/A N/A CALM    N/A
$$

ORZ506-280110-
OCHOCO AND JOHN DAY HIGHLANDS

CITY            SKY/WX      TMP DP  RH  WIND    PRES   REMARKS
#BUCK CREEK DOT N/A         86  36  17  SW12    N/A
#HORSE RIDGE DO N/A         82  34  18  NW10    N/A
#KEYES SMT DOT  N/A         81  38  21  SW24G31 N/A
#PAULINA SCHOOL N/A         87  30  13  W12     N/A
#PINE MTN OBS   N/A         72  38  29  NW3     N/A
#PRAIRIE CITY   N/A         89  38  17  W2      30.05F
#SENECA         N/A         81  N/A N/A NW2     N/A
#SENECA 9NW     N/A         85  37  18  NE1     29.78
$$

ORZ049-280110-
GRANDE RONDE VALLEY

CITY            SKY/WX      TMP DP  RH  WIND    PRES   REMARKS
LA GRANDE       PTCLDY      86  39  19  N16     29.83S
#COVE           N/A         87  49  27  N5      29.89S
#COVE SCHOOL    N/A         87  45  23  CALM    29.88R
#COVE 6NW       N/A         86  45  24  NW9     29.71S
#ELGIN 3N       N/A         83  37  19  SW2     29.83F
#ELGIN 1E       N/A         83  45  26  W7      N/A
#IMBLER SCHOOL  N/A         82  43  25  NW8     29.82R
#ISLAND CITY 4N N/A         78  61  56  N3      29.90
#LADD CYN DOT   N/A         89  53  29  W8      N/A
#LA GRANDE ELEM N/A         84  43  24  W7      29.87R
#UNION 1S       N/A         89  44  21  NW3     29.61S
$$

ORZ050-280110-
WALLOWA COUNTY

CITY            SKY/WX      TMP DP  RH  WIND    PRES   REMARKS
JOSEPH AIRPORT  PTCLDY      86  30  13  W9      29.88
#IMNAHA SCHOOL  N/A         57  41  55  N3      30.20S
#IMNAHA 10S     N/A         92  41  17  NE1     29.81S HX 88
#JOSEPH 3W      N/A         82  37  20  S2      29.80S
#LOSTINE        N/A         84  41  22  NW6     29.53R
#LOSTINE 3SE    N/A         83  38  20  N7      29.86S
#MT HOWARD 8000 N/A         65  33  30  SW9     30.19S
#PROMISE 1S     N/A         79  45  30  E16     29.82R
#WALLOWA SCHOOL N/A         85  43  23  W3      29.82



$$



USA.gov is the U.S. government's official web portal to all federal, state and local government web resources and services.